Regional Weather Roundup
Issued by NWS

Home | Current Version | Previous Version | Text Only | Print | Product List | Glossary On
Versions: 1 2 3 4 5 6 7 8 9 10 11 12 13 14 15 16 17 18 19 20 21 22 23 24 25 26 27 28 29 30 31 32 33 34 35 36 37 38 39 40 41 42 43 44 45 46 47 48 49 50
000
ASUS44 KFWD 081203
RWRTX
NORTH TEXAS HOURLY WEATHER ROUNDUP
NATIONAL WEATHER SERVICE FORT WORTH TX
600 AM CST MON FEB 08 2016

NOTE: "FAIR" INDICATES FEW OR NO CLOUDS BELOW 12,000 FEET WITH NO
SIGNIFICANT WEATHER AND/OR OBSTRUCTIONS TO VISIBILITY.

TXZ118-119-081300-
DALLAS/FORT WORTH METROPLEX

CITY           SKY/WX    TMP DP  RH WIND       PRES   REMARKS
DFW AIRPORT    PTCLDY    43  19  38 NW17      30.30R WCI  35
6HR MIN TEMP:  43; 6HR MAX TEMP:  50;

DALLAS LOVE    PTCLDY    42  18  37 NW13      30.30R WCI  35
6HR MIN TEMP:  42; 6HR MAX TEMP:  49;

FTW MEACHAM    CLEAR     41  19  41 NW14      30.32R WCI  33
6HR MIN TEMP:  41; 6HR MAX TEMP:  52;

DAL-EXECUTIVE  CLEAR     42  18  37 NW14      30.29R WCI  35
6HR MIN TEMP:  41; 6HR MAX TEMP:  49;

FTW-ALLIANCE   PTCLDY    41  18  39 NW12      30.32R WCI  34
6HR MIN TEMP:  40; 6HR MAX TEMP:  48;

FTW-NAS-JRB    CLEAR     43  18  36 NW14      30.33R WCI  36
6HR MIN TEMP:  43; 6HR MAX TEMP:  52;

FTW-SPINKS     CLEAR     43  16  33 NW14      30.33S WCI  36
6HR MIN TEMP:  43; 6HR MAX TEMP:  51;

ARLINGTON      CLEAR     45  16  31 NW14      30.31R WCI  38
6HR MIN TEMP:  45; 6HR MAX TEMP:  52;

ADDISON        CLEAR     45  19  36 NW15G25   30.30F WCI  38
LANCASTER      CLEAR     43  16  33 NW13      30.31R WCI  36
6HR MIN TEMP:  41; 6HR MAX TEMP:  48;

$$

TXZ091>094-102>105-117-120-121-131>134-081300-
NORTH CENTRAL TEXAS

CITY           SKY/WX    TMP DP  RH WIND       PRES   REMARKS
SHRMAN/DENISON CLEAR     42  18  39 NW12      30.29S WCI  35
6HR MIN TEMP:  42; 6HR MAX TEMP:  47;

GAINESVILLE    CLEAR     38  19  44 NW13      30.33R WCI  30
6HR MIN TEMP:  38; 6HR MAX TEMP:  46;

BRIDGEPORT     CLEAR     41  23  49 NW14      30.36S WCI  33
6HR MIN TEMP:  40; 6HR MAX TEMP:  48;

DECATUR        CLEAR     38  17  42 NW10      30.32R WCI  30
6HR MIN TEMP:  38; 6HR MAX TEMP:  47;

DENTON         CLEAR     40  19  43 NW13      30.32R WCI  32
6HR MIN TEMP:  40; 6HR MAX TEMP:  46;

MCKINNEY       CLEAR     42  19  39 NW15      30.29R WCI  34
6HR MIN TEMP:  42; 6HR MAX TEMP:  49;

ROCKWALL       PTCLDY    44  20  38 N16       30.27R WCI  37
6HR MIN TEMP:  43; 6HR MAX TEMP:  49;

TERRELL        CLEAR     42  20  41 NW8       30.29R WCI  37
6HR MIN TEMP:  42; 6HR MAX TEMP:  51;

WAXAHACHIE     CLEAR     42  20  42 NW10      30.31R WCI  36
6HR MIN TEMP:  42; 6HR MAX TEMP:  49;

CLEBURNE         N/A     37  18  44 W7        30.34R WCI  32
GRANBURY       CLEAR     40  19  43 CALM      30.36R
6HR MIN TEMP:  40; 6HR MAX TEMP:  50;

$$

TXZ083>090-098>101-113>116-127>130-139>142-154-155-081300-
WESTERN NORTH TEXAS

CITY           SKY/WX    TMP DP  RH WIND       PRES   REMARKS
WICHITA FALLS  CLEAR     36  18  48 NW15      30.36S WCI  27
6HR MIN TEMP:  34; 6HR MAX TEMP:  42;

WF-KICKAPOO    CLEAR     39  17  42 NW9       30.38R WCI  32
6HR MIN TEMP:  38; 6HR MAX TEMP:  46;

VERNON         CLEAR     33  14  45 NW12      30.40R WCI  24
6HR MIN TEMP:  28; 6HR MAX TEMP:  63;

ABILENE        CLEAR     33  16  49 NW9       30.40R WCI  25
6HR MIN TEMP:  32; 6HR MAX TEMP:  41;

ABILENE-DYESS  CLEAR     33  16  48 NW6       30.40R WCI  28
6HR MIN TEMP:  30; 6HR MAX TEMP:  44;

MINERAL WELLS  CLEAR     38  16  40 NW9       30.34R WCI  31
6HR MIN TEMP:  37; 6HR MAX TEMP:  47;

STEPHENVILLE   CLEAR     39  16  38 NW7       30.37R WCI  34
6HR MIN TEMP:  39; 6HR MAX TEMP:  49;

COMANCHE       CLEAR     38  16  41 NW9       30.38R WCI  32
6HR MIN TEMP:  38; 6HR MAX TEMP:  46;

BROWNWOOD      CLOUDY    39  14  35 N12       30.38R WCI  32
$$

TXZ143>147-156>162-174-175-081300-
CENTRAL TEXAS

CITY           SKY/WX    TMP DP  RH WIND       PRES   REMARKS
WACO           CLEAR     42  21  43 NW8       30.34R WCI  37
6HR MIN TEMP:  42; 6HR MAX TEMP:  47;

WACO-MCGREGOR  CLEAR     41  21  44 NW7       30.35R WCI  36
6HR MIN TEMP:  41; 6HR MAX TEMP:  48;

HILLSBORO      CLEAR     33  21  59 NW6       30.32R WCI  28
6HR MIN TEMP:  33; 6HR MAX TEMP:  46;

CORSICANA      CLEAR     43  21  41 NW10      30.31R WCI  37
6HR MIN TEMP:  43; 6HR MAX TEMP:  50;

MEXIA          CLEAR     42  22  45 NW8       30.30R WCI  36
6HR MIN TEMP:  41; 6HR MAX TEMP:  48;

HEARNE         CLEAR     42  28  57 NW10      30.32R WCI  36
6HR MIN TEMP:  33; 6HR MAX TEMP:  43;

TEMPLE         CLOUDY    43  22  43 N12       30.34R WCI  37
6HR MIN TEMP:  42; 6HR MAX TEMP:  47;

KILLEEN        CLOUDY    42  20  42 N13       30.33R WCI  35
6HR MIN TEMP:  41; 6HR MAX TEMP:  47;

KILLEEN-SKYLRK CLOUDY    44  19  36 N12       30.34R WCI  38
6HR MIN TEMP:  44; 6HR MAX TEMP:  49;

FORT HOOD      CLOUDY    43  18  37 N13       30.32R WCI  36
6HR MIN TEMP:  43; 6HR MAX TEMP:  49;

HAMILTON       PTCLDY    40  20  45 NW10      30.35S WCI  33
6HR MIN TEMP:  39; 6HR MAX TEMP:  49;

LAMPASAS       CLOUDY    42  19  40 N9        30.34R WCI  36
6HR MIN TEMP:  42; 6HR MAX TEMP:  50;

$$

TXZ095>097-106>112-122>126-135>138-148>153-164>167-081300-
EAST TEXAS

CITY           SKY/WX    TMP DP  RH WIND       PRES   REMARKS
PARIS          PTCLDY    43  16  33 NW16G24   30.22S WCI  35
6HR MIN TEMP:  43; 6HR MAX TEMP:  48;

SULPHUR SPRNGS CLEAR     45  23  41 NW15      30.27R WCI  38
6HR MIN TEMP:  45; 6HR MAX TEMP:  49;

GILMER         PTCLDY    44  22  41 NW12G18   30.21R WCI  37
6HR MIN TEMP:  44; 6HR MAX TEMP:  49;

MINEOLA        CLEAR     43  21  42 W9        30.25R WCI  37
TYLER          PTCLDY    44  20  38 NW9       30.23R WCI  39
6HR MIN TEMP:  44; 6HR MAX TEMP:  51;

LONGVIEW       PTCLDY    44  22  41 NW14      30.19R WCI  37
6HR MIN TEMP:  44; 6HR MAX TEMP:  48;

MARSHALL       MOCLDY    45  19  35 NW10      30.19R WCI  40
6HR MIN TEMP:  45; 6HR MAX TEMP:  53;

PALESTINE      CLEAR     44  21  40 NW3       30.28R
JACKSONVILLE   CLEAR     46  19  34 NW12G20   30.26R WCI  40
CENTER         FAIR      44  26  47 W6        30.19R
6HR MIN TEMP:  39; 6HR MAX TEMP:  47;

NACOGDOCHES    CLEAR     37  27  65 NW7       30.23R WCI  32
6HR MIN TEMP:  32; 6HR MAX TEMP:  39;

LUFKIN         CLEAR     40  29  64 NW8       30.24R WCI  34
6HR MIN TEMP:  36; 6HR MAX TEMP:  43;

$$

SUPPLEMENTAL OBSERVATIONS (CENTRAL)

CITY           SKY/WX    TMP DP  RH WIND       PRES   REMARKS
$$

SUPPLEMENTAL OBSERVATIONS (WEST)

CITY           SKY/WX    TMP DP  RH WIND       PRES   REMARKS
$$

SUPPLEMENTAL OBSERVATIONS (EAST)

CITY           SKY/WX    TMP DP  RH WIND       PRES   REMARKS
$$

SUPPLEMENTAL OBSERVATIONS ARE A COLLECTION OF AUTOMATED INSTRUMENTS
THAT ARE MAINTAINED BY A VARIETY OF FEDERAL AND STATE AGENCIES.
CERTAIN ELEMENTS...SUCH AS HUMIDITY VALUES AND SUSTAINED WIND
SPEEDS...MAY BE APPROXIMATED.




USA.gov is the U.S. government's official web portal to all federal, state and local government web resources and services.